H1 CPF 2 NER 2021 6 28 9 179 01 glonass128 H2 1106401 9128 37867 2021 6 28 0 0 0 2021 7 1 23 45 0 900 1 1 0 0 0 1 H9 10 0 59393 0.00000 0 9133318.995 -6671893.505 22905731.546 10 0 59393 900.00000 0 11389499.321 -5050450.569 22296499.295 10 0 59393 1800.00000 0 13672589.955 -3651251.467 21255951.868 10 0 59393 2700.00000 0 15917467.436 -2494588.785 19803945.556 10 0 59393 3600.00000 0 18057643.369 -1588476.739 17968305.297 10 0 59393 4500.00000 0 20027889.433 -928518.389 15784314.615 10 0 59393 5400.00000 0 21766834.091 -498300.225 13294060.234 10 0 59393 6300.00000 0 23219423.501 -270299.188 10545641.450 10 0 59393 7200.00000 0 24339143.590 -207265.625 7592257.409 10 0 59393 8100.00000 0 25089909.222 -264025.324 4491188.149 10 0 59393 9000.00000 0 25447539.404 -389625.558 1302687.985 10 0 59393 9900.00000 0 25400754.171 -529734.827 -1911187.609 10 0 59393 10800.00000 0 24951648.639 -629194.243 -5087798.528 10 0 59393 11700.00000 0 24115621.729 -634611.204 -8165155.289 10 0 59393 12600.00000 0 22920760.437 -496883.413 -11083147.216 10 0 59393 13500.00000 0 21406704.068 -173543.593 -13784737.649 10 0 59393 14400.00000 0 19623035.494 369177.437 -16217100.597 10 0 59393 15300.00000 0 17627267.295 1154659.796 -18332674.357 10 0 59393 16200.00000 0 15482508.307 2194650.093 -20090109.510 10 0 59393 17100.00000 0 13254910.000 3488518.585 -21455091.148 10 0 59393 18000.00000 0 11011001.729 5023051.116 -22401017.995 10 0 59393 18900.00000 0 8815028.361 6772785.732 -22909524.580 10 0 59393 19800.00000 0 6726403.355 8700880.267 -22970836.132 10 0 59393 20700.00000 0 4797385.036 10760474.097 -22583949.680 10 0 59393 21600.00000 0 3071073.598 12896486.157 -21756638.692 10 0 59393 22500.00000 0 1579812.094 15047772.703 -20505282.340 10 0 59393 23400.00000 0 344057.002 17149553.061 -18854524.192 10 0 59393 24300.00000 0 -628236.568 19136000.621 -16836768.594 10 0 59393 25200.00000 0 -1341692.162 20942889.694 -14491526.195 10 0 59393 26100.00000 0 -1813051.772 22510186.923 -11864623.046 10 0 59393 27000.00000 0 -2070200.999 23784478.848 -9007290.207 10 0 59393 27900.00000 0 -2150723.976 24721134.729 -5975152.869 10 0 59393 28800.00000 0 -2100051.941 25286115.248 -2827139.859 10 0 59393 29700.00000 0 -1969285.953 25457353.160 375664.553 10 0 59393 30600.00000 0 -1812787.347 25225650.160 3571203.887 10 0 59393 31500.00000 0 -1685638.484 24595054.646 6697644.693 10 0 59393 32400.00000 0 -1641081.102 23582706.724 9694561.207 10 0 59393 33300.00000 0 -1728039.745 22218158.763 12504087.429 10 0 59393 34200.00000 0 -1988833.583 20542201.224 15072015.626 10 0 59393 35100.00000 0 -2457171.577 18605243.410 17348821.821 10 0 59393 36000.00000 0 -3156513.998 16465316.525 19290600.406 10 0 59393 36900.00000 0 -4098867.905 14185781.347 20859891.821 10 0 59393 37800.00000 0 -5284066.528 11832834.290 22026389.349 10 0 59393 38700.00000 0 -6699562.816 9472913.343 22767513.100 10 0 59393 39600.00000 0 -8320746.606 7170109.217 23068841.359 10 0 59393 40500.00000 0 -10111773.894 4983686.600 22924391.743 10 0 59393 41400.00000 0 -12026876.013 2965815.996 22336746.796 10 0 59393 42300.00000 0 -14012097.027 1159608.473 21317020.967 10 0 59393 43200.00000 0 -16007390.103 -402466.474 19884668.314 10 0 59393 44100.00000 0 -17948988.702 -1699714.754 18067132.765 10 0 59393 45000.00000 0 -19771956.353 -2723855.880 15899345.393 10 0 59393 45900.00000 0 -21412810.827 -3479138.228 13423075.922 10 0 59393 46800.00000 0 -22812114.310 -3981925.358 10686148.447 10 0 59393 47700.00000 0 -23916921.469 -4259769.282 7741534.356 10 0 59393 48600.00000 0 -24682982.148 -4350008.233 4646338.173 10 0 59393 49500.00000 0 -25076604.667 -4297946.865 1460694.785 10 0 59393 50400.00000 0 -25076099.095 -4154695.042 -1753400.935 10 0 59393 51300.00000 0 -24672737.068 -3974756.666 -4933309.066 10 0 59393 52200.00000 0 -23871184.892 -3813471.479 -8016979.567 10 0 59393 53100.00000 0 -22689389.071 -3724419.773 -10944181.394 10 0 59393 54000.00000 0 -21157916.962 -3756902.337 -13657699.909 10 0 59393 54900.00000 0 -19318778.868 -3953605.129 -16104476.965 10 0 59393 55800.00000 0 -17223780.593 -4348550.538 -18236669.104 10 0 59393 56700.00000 0 -14932475.908 -4965424.859 -20012601.202 10 0 59393 57600.00000 0 -12509805.812 -5816355.248 -21397595.260 10 0 59393 58500.00000 0 -10023525.095 -6901189.832 -22364656.886 10 0 59393 59400.00000 0 -7541525.636 -8207312.700 -22895005.434 10 0 59393 60300.00000 0 -5129170.032 -9710002.219 -22978437.337 10 0 59393 61200.00000 0 -2846748.371 -11373317.461 -22613515.859 10 0 59393 62100.00000 0 -747165.087 -13151474.823 -21807584.471 10 0 59393 63000.00000 0 1126047.607 -14990655.876 -20576604.704 10 0 59393 63900.00000 0 2740307.542 -16831169.159 -18944823.123 10 0 59393 64800.00000 0 4075087.565 -18609873.798 -16944275.499 10 0 59393 65700.00000 0 5122504.010 -20262762.070 -14614139.486 10 0 59393 66600.00000 0 5887367.100 -21727591.676 -11999950.105 10 0 59393 67500.00000 0 6386694.734 -22946456.947 -9152694.825 10 0 59393 68400.00000 0 6648713.640 -23868191.333 -6127807.205 10 0 59393 69300.00000 0 6711393.268 -24450501.142 -2984079.820 10 0 59393 70200.00000 0 6620577.106 -24661742.344 217481.592 10 0 59393 71100.00000 0 6427792.428 -24482267.661 3414840.173 10 0 59393 72000.00000 0 6187832.287 -23905289.363 6546123.148 10 0 59393 72900.00000 0 5956212.389 -22937223.647 9550807.529 10 0 59393 73800.00000 0 5786609.920 -21597503.894 12370874.336 10 0 59393 74700.00000 0 5728391.450 -19917872.004 14951910.243 10 0 59393 75600.00000 0 5824332.725 -17941178.121 17244137.146 10 0 59393 76500.00000 0 6108624.786 -15719738.847 19203351.675 10 0 59393 77400.00000 0 6605248.737 -13313321.605 20791758.552 10 0 59393 78300.00000 0 7326786.276 -10786837.526 21978683.683 10 0 59393 79200.00000 0 8273715.319 -8207836.591 22741154.973 10 0 59393 80100.00000 0 9434220.375 -5643906.547 23064340.945 10 0 59393 81000.00000 0 10784526.671 -3160080.767 22941839.471 10 0 59393 81900.00000 0 12289745.842 -816359.848 22375811.137 10 0 59393 82800.00000 0 13905200.364 1334552.482 21376954.061 10 0 59393 83700.00000 0 15578174.331 3249207.041 19964319.404 10 0 59393 84600.00000 0 17250020.556 4894980.264 18164969.245 10 0 59393 85500.00000 0 18858538.849 6251193.620 16013481.182 10 0 59394 0.00000 0 20340528.500 7309734.451 13551306.789 10 0 59394 900.00000 0 21634409.709 8075151.269 10825993.408 10 0 59394 1800.00000 0 22682805.323 8564218.639 7890283.058 10 0 59394 2700.00000 0 23434973.322 8804987.616 4801102.810 10 0 59394 3600.00000 0 23848987.904 8835361.436 1618465.932 10 0 59394 4500.00000 0 23893574.312 8701254.757 -1595695.710 10 0 59394 5400.00000 0 23549517.992 8454414.247 -4778744.963 10 0 59394 6300.00000 0 22810585.563 8149992.989 -7868573.893 10 0 59394 7200.00000 0 21683915.837 7843982.532 -10804833.760 10 0 59394 8100.00000 0 20189861.777 7590613.254 -13530134.543 10 0 59394 9000.00000 0 18361287.965 7439835.546 -15991188.396 10 0 59394 9900.00000 0 16242351.878 7434991.236 -18139872.393 10 0 59394 10800.00000 0 13886819.752 7610776.599 -19934187.803 10 0 59394 11700.00000 0 11355988.001 7991585.692 -21339095.456 10 0 59394 12600.00000 0 8716298.399 8590306.132 -22327209.584 10 0 59394 13500.00000 0 6036748.246 9407619.652 -22879335.929 10 0 59394 14400.00000 0 3386205.303 10431837.736 -22984843.452 10 0 59394 15300.00000 0 830741.170 11639279.259 -22641862.713 10 0 59394 16200.00000 0 -1568904.647 12995173.645 -21857307.909 10 0 59394 17100.00000 0 -3759623.841 14455050.408 -20646723.266 10 0 59394 18000.00000 0 -5697906.018 15966555.126 -19033958.246 10 0 59394 18900.00000 0 -7351392.232 17471613.901 -17050679.501 10 0 59394 19800.00000 0 -8699952.612 18908853.837 -14735730.692 10 0 59394 20700.00000 0 -9736245.727 20216176.471 -12134354.381 10 0 59394 21600.00000 0 -10465739.665 21333375.238 -9297292.635 10 0 59394 22500.00000 0 -10906197.489 22204686.654 -6279785.198 10 0 59394 23400.00000 0 -11086652.228 22781168.271 -3140485.921 10 0 59394 24300.00000 0 -11045917.750 23022804.371 59680.736 10 0 59394 25200.00000 0 -10830700.933 22900252.215 3258700.491 10 0 59394 26100.00000 0 -10493396.610 22396157.212 6394664.350 10 0 59394 27000.00000 0 -10089659.370 21505983.561 9406955.309 10 0 59394 27900.00000 0 -9675854.853 20238327.223 12237404.660 10 0 59394 28800.00000 0 -9306497.397 18614699.489 14831396.722 10 0 59394 29700.00000 0 -9031780.824 16668791.013 17138902.409 10 0 59394 30600.00000 0 -8895304.698 14445247.179 19115423.617 10 0 59394 31500.00000 0 -8932089.951 11998005.292 20722832.163 10 0 59394 32400.00000 0 -9166965.652 9388261.438 21930089.124 10 0 59394 33300.00000 0 -9613393.443 6682149.443 22713832.430 10 0 59394 34200.00000 0 -10272778.427 3948225.830 23058822.678 10 0 59394 35100.00000 0 -11134295.601 1254862.196 22958239.369 10 0 59394 36000.00000 0 -12175240.229 -1332349.768 22413821.992 10 0 59394 36900.00000 0 -13361889.342 -3753075.650 21435852.631 10 0 59394 37800.00000 0 -14650840.795 -5954497.540 20042979.241 10 0 59394 38700.00000 0 -15990776.716 -7893262.956 18261881.133 10 0 59394 39600.00000 0 -17324580.395 -9537043.162 16126780.913 10 0 59394 40500.00000 0 -18591720.543 -10865636.101 13678809.797 10 0 59394 41400.00000 0 -19730805.035 -11871567.331 10965236.035 10 0 59394 42300.00000 0 -20682198.105 -12560162.577 8038569.141 10 0 59394 43200.00000 0 -21390591.290 -12949087.500 4955555.411 10 0 59394 44100.00000 0 -21807419.169 -13067372.534 1776082.924 10 0 59394 45000.00000 0 -21893016.445 -12953962.587 -1437983.185 10 0 59394 45900.00000 0 -21618422.951 -12655852.097 -4624012.324 10 0 59394 46800.00000 0 -20966757.492 -12225884.132 -7719842.466 10 0 59394 47700.00000 0 -19934099.390 -11720307.286 -10665010.904 10 0 59394 48600.00000 0 -18529837.564 -11196195.184 -13401955.812 10 0 59394 49500.00000 0 -16776469.767 -10708839.866 -15877162.984 10 0 59394 50400.00000 0 -14708858.569 -10309231.837 -18042233.022 10 0 59394 51300.00000 0 -12372974.210 -10041736.030 -19854846.138 10 0 59394 52200.00000 0 -9824176.769 -9942064.505 -21279603.985 10 0 59394 53100.00000 0 -7125110.168 -10035633.696 -22288730.781 10 0 59394 54000.00000 0 -4343297.157 -10336377.157 -22862619.349 10 0 59394 54900.00000 0 -1548537.148 -10846064.834 -22990211.213 10 0 59394 55800.00000 0 1189782.982 -11554157.667 -22669203.651 10 0 59394 56700.00000 0 3805351.767 -12438203.097 -21906080.467 10 0 59394 57600.00000 0 6237457.978 -13464753.656 -20715967.018 10 0 59394 58500.00000 0 8433272.024 -14590768.329 -19122313.737 10 0 59394 59400.00000 0 10349789.538 -15765435.874 -17156415.919 10 0 59394 60300.00000 0 11955357.672 -16932341.487 -14856780.765 10 0 59394 61200.00000 0 13230722.558 -18031883.925 -12268355.696 10 0 59394 62100.00000 0 14169557.184 -19003840.055 -9441634.517 10 0 59394 63000.00000 0 14778450.923 -19789968.084 -6431660.171 10 0 59394 63900.00000 0 15076364.672 -20336539.642 -3296944.699 10 0 59394 64800.00000 0 15093577.907 -20596694.559 -98328.180 10 0 59394 65700.00000 0 14870174.955 -20532520.158 3102200.745 10 0 59394 66600.00000 0 14454136.537 -20116768.921 6242699.804 10 0 59394 67500.00000 0 13899118.576 -19334143.936 9262460.740 10 0 59394 68400.00000 0 13262012.531 -18182099.691 12103167.624 10 0 59394 69300.00000 0 12600389.862 -16671126.022 14710004.621 10 0 59394 70200.00000 0 11969937.311 -14824504.249 17032693.539 10 0 59394 71100.00000 0 11421989.378 -12677545.949 19026443.048 10 0 59394 72000.00000 0 11001259.909 -10276345.803 20652793.205 10 0 59394 72900.00000 0 10743866.158 -7676099.228 21880341.034 10 0 59394 73800.00000 0 10675726.559 -4939052.828 22685334.907 10 0 59394 74700.00000 0 10811398.216 -2132170.390 23052127.567 10 0 59394 75600.00000 0 11153402.294 675391.717 22973479.903 10 0 59394 76500.00000 0 11692065.901 3414898.118 22450709.774 10 0 59394 77400.00000 0 12405888.170 6020631.498 21493682.452 10 0 59394 78300.00000 0 13262417.089 8432368.089 20120641.684 10 0 59394 79200.00000 0 14219602.713 10597630.839 18357882.827 10 0 59394 80100.00000 0 15227572.704 12473627.813 16239272.134 10 0 59394 81000.00000 0 16230758.310 14028795.635 13805618.996 10 0 59394 81900.00000 0 17170283.758 15243883.308 11103910.750 10 0 59394 82800.00000 0 17986520.200 16112530.051 8186422.601 10 0 59394 83700.00000 0 18621697.406 16641311.603 5109718.026 10 0 59394 84600.00000 0 19022462.946 16849251.439 1933557.703 10 0 59394 85500.00000 0 19142279.620 16766815.894 -1280262.292 10 0 59395 0.00000 0 18943557.917 16434434.480 -4469120.279 10 0 59395 900.00000 0 18399430.200 15900607.231 -7570802.686 10 0 59395 1800.00000 0 17495089.850 15219679.124 -10524735.151 10 0 59395 2700.00000 0 16228633.354 14449376.816 -13273186.301 10 0 59395 3600.00000 0 14611369.136 13648213.122 -15762417.680 10 0 59395 4500.00000 0 12667576.081 12872871.411 -17943755.367 10 0 59395 5400.00000 0 10433720.821 12175682.781 -19774560.295 10 0 59395 6300.00000 0 7957165.464 11602305.079 -21219076.578 10 0 59395 7200.00000 0 5294419.935 11189704.001 -22249139.926 10 0 59395 8100.00000 0 2509012.620 10964523.124 -22844731.606 10 0 59395 9000.00000 0 -330930.656 10941912.661 -22994366.892 10 0 59395 9900.00000 0 -3155296.799 11124866.580 -22695310.739 10 0 59395 10800.00000 0 -5894674.672 11504095.473 -21953617.232 10 0 59395 11700.00000 0 -8483010.274 12058439.377 -20783993.168 10 0 59395 12600.00000 0 -10860116.637 12755801.393 -19209489.867 10 0 59395 13500.00000 0 -12973934.116 13554560.715 -17261030.783 10 0 59395 14400.00000 0 -14782447.755 14405403.354 -14976785.763 10 0 59395 15300.00000 0 -16255183.452 15253491.309 -12401405.845 10 0 59395 16200.00000 0 -17374222.883 16040877.015 -9585135.020 10 0 59395 17100.00000 0 -18134697.758 16709059.957 -6582817.617 10 0 59395 18000.00000 0 -18544745.985 17201576.956 -3452821.823 10 0 59395 18900.00000 0 -18624934.975 17466516.823 -255901.095 10 0 59395 19800.00000 0 -18407179.494 17458853.883 2945984.008 10 0 59395 20700.00000 0 -17933202.182 17142503.065 6090860.551 10 0 59395 21600.00000 0 -17252603.522 16492011.391 9117931.803 10 0 59395 22500.00000 0 -16420623.619 15493816.152 11968737.532 10 0 59395 23400.00000 0 -15495690.215 14147018.359 14588264.766 10 0 59395 24300.00000 0 -14536855.531 12463640.032 16925989.256 10 0 59395 25200.00000 0 -13601228.347 10468355.039 18936829.456 10 0 59395 26100.00000 0 -12741507.390 8197704.578 20581996.561 10 0 59395 27000.00000 0 -12003717.481 5698829.068 21829726.237 10 0 59395 27900.00000 0 -11425241.284 3027767.450 22655879.713 10 0 59395 28800.00000 0 -11033227.448 247392.320 23044403.942 10 0 59395 29700.00000 0 -10843440.555 -2574936.311 22987642.860 10 0 59395 30600.00000 0 -10859600.581 -5369904.486 22486493.884 10 0 59395 31500.00000 0 -11073239.833 -8068862.972 21550406.148 10 0 59395 32400.00000 0 -11464084.487 -10606425.480 20197219.336 10 0 59395 33300.00000 0 -12000946.495 -12922940.965 18452844.429 10 0 59395 34200.00000 0 -12643090.705 -14966738.857 16350790.356 10 0 59395 35100.00000 0 -13342022.203 -16696054.705 13931543.189 10 0 59395 36000.00000 0 -14043621.023 -18080555.938 11241807.375 10 0 59395 36900.00000 0 -14690536.195 -19102403.208 8333621.408 10 0 59395 37800.00000 0 -15224739.369 -19756801.560 5263363.179 10 0 59395 38700.00000 0 -15590130.491 -20052016.630 2090662.922 10 0 59395 39600.00000 0 -15735084.751 -20008853.364 -1122755.639 10 0 59395 40500.00000 0 -15614831.465 -19659617.717 -4314283.323 10 0 59395 41400.00000 0 -15193561.855 -19046604.032 -7421658.358 10 0 59395 42300.00000 0 -14446173.563 -18220171.516 -10384198.498 10 0 59395 43200.00000 0 -13359574.904 -17236491.453 -13144006.488 10 0 59395 44100.00000 0 -11933490.482 -16155061.393 -15647123.183 10 0 59395 45000.00000 0 -10180731.352 -15036093.065 -17844603.484 10 0 59395 45900.00000 0 -8126916.021 -13937886.492 -19693492.072 10 0 59395 46800.00000 0 -5809652.442 -12914303.413 -21157678.098 10 0 59395 47700.00000 0 -3277214.643 -12012448.825 -22208610.801 10 0 59395 48600.00000 0 -586769.474 -11270660.143 -22825861.318 10 0 59395 49500.00000 0 2197771.743 -10716889.854 -22997519.495 10 0 59395 50400.00000 0 5008185.719 -10367550.269 -22720418.175 10 0 59395 51300.00000 0 7774551.123 -10226868.542 -22000181.385 10 0 59395 52200.00000 0 10427933.801 -10286778.027 -20851096.544 10 0 59395 53100.00000 0 12903030.403 -10527348.710 -19295814.600 10 0 59395 54000.00000 0 15140660.023 -10917736.326 -17364885.506 10 0 59395 54900.00000 0 17090000.338 -11417607.703 -15096139.728 10 0 59395 55800.00000 0 18710476.042 -11978979.715 -12533929.526 10 0 59395 56700.00000 0 19973222.630 -12548392.052 -9728246.334 10 0 59395 57600.00000 0 20862066.853 -13069320.280 -6733732.799 10 0 59395 58500.00000 0 21373985.729 -13484726.091 -3608609.941 10 0 59395 59400.00000 0 21519028.104 -13739636.475 -413541.097 10 0 59395 60300.00000 0 21319705.178 -13783643.010 2789544.801 10 0 59395 61200.00000 0 20809878.429 -13573216.442 5938647.662 10 0 59395 62100.00000 0 20033193.909 -13073740.089 8972885.602 10 0 59395 63000.00000 0 19041130.286 -12261177.704 11833657.141 10 0 59395 63900.00000 0 17890743.292 -11123307.081 14465754.871 10 0 59395 64800.00000 0 16642201.163 -9660468.692 16818410.787 10 0 59395 65700.00000 0 15356213.510 -7885798.689 18846255.006 10 0 59395 66600.00000 0 14091459.832 -5824936.618 20510171.310 10 0 59395 67500.00000 0 12902123.362 -3515219.395 21778035.041 10 0 59395 68400.00000 0 11835631.255 -1004393.656 22625320.905 10 0 59395 69300.00000 0 10930693.562 1651102.023 23035570.305 10 0 59395 70200.00000 0 10215721.261 4388216.447 23000710.071 10 0 59395 71100.00000 0 9707688.309 7139643.505 22521216.683 10 0 59395 72000.00000 0 9411484.902 9836363.589 21606122.307 10 0 59395 72900.00000 0 9319789.359 12410266.433 20272861.428 10 0 59395 73800.00000 0 9413465.063 14796749.193 18546959.256 10 0 59395 74700.00000 0 9662467.543 16937183.738 16461565.758 10 0 59395 75600.00000 0 10027225.628 18781151.768 14056841.838 10 0 59395 76500.00000 0 10460440.747 20288354.937 11379207.013 10 0 59395 77400.00000 0 10909230.512 21430119.626 8480460.854 10 0 59395 78300.00000 0 11317527.577 22190432.233 5416793.299 10 0 59395 79200.00000 0 11628633.104 22566459.813 2247701.643 10 0 59395 80100.00000 0 11787816.656 22568532.210 -965165.308 10 0 59395 81000.00000 0 11744851.327 22219584.563 -4159213.396 10 0 59395 81900.00000 0 11456374.750 21554082.117 -7272135.304 10 0 59395 82800.00000 0 10887973.323 20616471.696 -10243143.266 10 0 59395 83700.00000 0 10015898.281 19459224.953 -13014176.382 10 0 59395 84600.00000 0 8828337.730 18140556.496 -15531056.860 10 0 59395 85500.00000 0 7326187.803 16721914.440 -17744570.259 10 0 59396 0.00000 0 5523287.761 15265351.009 -19611446.608 10 0 59396 900.00000 0 3446106.619 13830886.269 -21095221.600 10 0 59396 1800.00000 0 1132894.442 12473977.650 -22166959.265 10 0 59396 2700.00000 0 -1367668.425 11243204.822 -22805821.706 10 0 59396 3600.00000 0 -3998265.734 10178267.192 -22999474.240 10 0 59396 4500.00000 0 -6695108.363 9308380.071 -22744318.254 10 0 59396 5400.00000 0 -9390374.195 8651136.174 -22045548.058 10 0 59396 6300.00000 0 -12014821.874 8211879.489 -20917031.677 10 0 59396 7200.00000 0 -14500468.263 7983616.070 -19381019.285 10 0 59396 8100.00000 0 -16783217.252 7947463.146 -17467686.555 10 0 59396 9000.00000 0 -18805330.193 8073614.913 -15214523.439 10 0 59396 9900.00000 0 -20517635.307 8322781.450 -12665581.995 10 0 59396 10800.00000 0 -21881385.131 8648037.377 -9870599.446 10 0 59396 11700.00000 0 -22869686.289 8996999.830 -6884014.936 10 0 59396 12600.00000 0 -23468444.207 9314241.990 -3763900.349 10 0 59396 13500.00000 0 -23676786.078 9543839.021 -570826.811 10 0 59396 14400.00000 0 -23506947.311 9631938.392 2633310.602 10 0 59396 15300.00000 0 -22983629.018 9529246.248 5786486.994 10 0 59396 16200.00000 0 -22142855.975 9193325.637 8827737.837 10 0 59396 17100.00000 0 -21030384.773 8590610.832 11698323.033 10 0 59396 18000.00000 0 -19699730.024 7698054.244 14342843.466 10 0 59396 18900.00000 0 -18209891.603 6504337.957 16710290.140 10 0 59396 19800.00000 0 -16622877.523 5010599.885 18755007.569 10 0 59396 20700.00000 0 -15001124.802 3230644.637 20437554.718 10 0 59396 21600.00000 0 -13404924.272 1190629.897 21725449.004 10 0 59396 22500.00000 0 -11889954.637 -1071759.638 22593780.730 10 0 59396 23400.00000 0 -10505026.467 -3508618.156 23025687.525 10 0 59396 24300.00000 0 -9290128.145 -6063552.660 23012680.521 10 0 59396 25200.00000 0 -8274853.566 -8673775.913 22554816.255 10 0 59396 26100.00000 0 -7477276.229 -11272474.666 21660710.499 10 0 59396 27000.00000 0 -6903316.355 -13791358.106 20347392.675 10 0 59396 27900.00000 0 -6546627.911 -16163283.598 18640001.914 10 0 59396 28800.00000 0 -6389011.387 -18324852.876 16571328.475 10 0 59396 29700.00000 0 -6401336.564 -20218872.211 14181206.923 10 0 59396 30600.00000 0 -6544938.358 -21796574.747 11515770.273 10 0 59396 31500.00000 0 -6773428.843 -23019511.883 8626577.245 10 0 59396 32400.00000 0 -7034850.540 -23861033.594 5569627.581 10 0 59396 33300.00000 0 -7274080.970 -24307293.911 2404283.131 10 0 59396 34200.00000 0 -7435386.982 -24357737.214 -807884.960 10 0 59396 35100.00000 0 -7465020.006 -24025042.718 -4004300.503 10 0 59396 36000.00000 0 -7313740.695 -23334527.448 -7122613.766 10 0 59396 36900.00000 0 -6939163.676 -22323031.361 -10101934.732 10 0 59396 37800.00000 0 -6307820.167 -21037330.743 -12884042.221 10 0 59396 38700.00000 0 -5396847.898 -19532146.681 -15414543.167 10 0 59396 39600.00000 0 -4195233.703 -17867833.293 -17643957.079 10 0 59396 40500.00000 0 -2704553.336 -16107844.449 -19528702.477 10 0 59396 41400.00000 0 -939174.874 -14316087.433 -21031964.253 10 0 59396 42300.00000 0 1074084.527 -12554276.945 -22124423.606 10 0 59396 43200.00000 0 3296835.086 -10879402.511 -22784835.490 10 0 59396 44100.00000 0 5680487.522 -9341417.239 -23000442.006 10 0 59396 45000.00000 0 8168064.796 -7981245.851 -22767213.875 10 0 59396 45900.00000 0 10696375.785 -6829195.720 -22089915.974 10 0 59396 46800.00000 0 13198458.840 -5903836.829 -20981996.733 10 0 59396 47700.00000 0 15606191.901 -5211396.145 -19465304.899 10 0 59396 48600.00000 0 17852959.184 -4745689.546 -17569640.768 10 0 59396 49500.00000 0 19876262.569 -4488591.302 -15332152.243 10 0 59396 50400.00000 0 21620168.518 -4411018.301 -12796589.191 10 0 59396 51300.00000 0 23037489.000 -4474384.413 -10012432.193 10 0 59396 52200.00000 0 24091606.556 -4632460.736 -7033914.027 10 0 59396 53100.00000 0 24757869.021 -4833560.852 -3918954.224 10 0 59396 54000.00000 0 25024497.970 -5022956.962 -728028.215 10 0 59396 54900.00000 0 24892975.424 -5145423.785 2477006.409 10 0 59396 55800.00000 0 24377895.312 -5147802.442 5634103.599 10 0 59396 56700.00000 0 23506288.352 -4981476.399 8682219.719 10 0 59396 57600.00000 0 22316450.632 -4604655.880 11562479.359 10 0 59396 58500.00000 0 20856326.277 -3984375.695 14219294.695 10 0 59396 59400.00000 0 19181512.522 -3098123.705 16601418.376 10 0 59396 60300.00000 0 17352970.273 -1935032.599 18662911.537 10 0 59396 61200.00000 0 15434534.865 -496585.778 20364010.174 10 0 59396 62100.00000 0 13490329.171 1203192.094 21671875.200 10 0 59396 63000.00000 0 11582184.739 3138068.508 22561213.548 10 0 59396 63900.00000 0 9767176.074 5270447.883 23014759.698 10 0 59396 64800.00000 0 8095368.336 7552694.720 23023609.304 10 0 59396 65700.00000 0 6607870.154 9928882.829 22587398.767 10 0 59396 66600.00000 0 5335271.105 12336900.982 21714326.864 10 0 59396 67500.00000 0 4296528.043 14710830.758 20421016.957 10 0 59396 68400.00000 0 3498346.505 16983500.821 18732220.736 10 0 59396 69300.00000 0 2935083.603 19089113.940 16680367.054 10 0 59396 70200.00000 0 2589177.535 20965839.315 14304962.161 10 0 59396 71100.00000 0 2432087.172 22558263.160 11651850.340 10 0 59396 72000.00000 0 2425703.933 23819595.250 8772347.021 10 0 59396 72900.00000 0 2524177.957 24713538.324 5722259.152 10 0 59396 73800.00000 0 2676082.638 25215740.408 2560810.390 10 0 59396 74700.00000 0 2826826.537 25314766.893 -650508.593 10 0 59396 75600.00000 0 2921210.294 25012549.129 -3849142.403 10 0 59396 76500.00000 0 2906019.078 24324288.214 -6972701.658 10 0 59396 77400.00000 0 2732538.801 23277816.008 -9960196.716 10 0 59396 78300.00000 0 2358886.862 21912438.815 -12753248.561 10 0 59396 79200.00000 0 1752055.662 20277311.668 -15297251.059 10 0 59396 80100.00000 0 889579.264 18429411.826 -17542459.624 10 0 59396 81000.00000 0 -239250.334 16431197.549 -19444982.954 10 0 59396 81900.00000 0 -1632671.330 14348052.019 -20967656.677 10 0 59396 82800.00000 0 -3276276.660 12245621.624 -22080780.394 10 0 59396 83700.00000 0 -5143383.694 10187162.194 -22762702.910 10 0 59396 84600.00000 0 -7195934.137 8231006.076 -23000243.876 10 0 59396 85500.00000 0 -9385886.158 6428257.455 -22788943.800 99